• En España
  • Lista de países
  • Para 7 días
  • Temperatura del agua
  • Mapa Satelital
  • El tiempo en el mapa
  • Informadores
  • user-avatar
    Iniciar sesión

    Tiempo cada hora Borovec

    Hoy, 19 Septiembre, Miércoles

    Tiempo Temperatura Precipitaciones Viento Presión Humedad
    00:00 +16°C° 0 mm 1 mps 715 mmHg 81%
    01:00 +15°C° 0 mm 1 mps 715 mmHg 82%
    02:00 +15°C° 0 mm 1 mps 715 mmHg 84%
    03:00 +14°C° 0 mm 1 mps 715 mmHg 84%
    04:00 +14°C° 0 mm 1 mps 715 mmHg 85%
    05:00 +14°C° 0 mm 1 mps 715 mmHg 85%
    06:00 +15°C° 0 mm 1 mps 715 mmHg 78%
    07:00 +18°C° 0 mm 1 mps 715 mmHg 71%
    08:00 +19°C° 0 mm 1 mps 716 mmHg 65%
    09:00 +21°C° 0 mm 1 mps 716 mmHg 57%
    10:00 +23°C° 0 mm 1 mps 716 mmHg 49%
    11:00 +25°C° 0 mm 2 mps 716 mmHg 41%
    12:00 +26°C° 0 mm 2 mps 716 mmHg 38%
    13:00 +27°C° 0 mm 2 mps 716 mmHg 34%
    14:00 +28°C° 0 mm 2 mps 715 mmHg 31%
    15:00 +27°C° 0 mm 3 mps 715 mmHg 33%
    16:00 +27°C° 0 mm 3 mps 715 mmHg 34%
    17:00 +26°C° 0 mm 3 mps 714 mmHg 35%
    18:00 +23°C° 0 mm 2 mps 714 mmHg 42%
    19:00 +20°C° 0 mm 2 mps 714 mmHg 48%
    20:00 +18°C° 0 mm 1 mps 714 mmHg 54%
    21:00 +18°C° 0 mm 1 mps 714 mmHg 55%
    22:00 +16°C° 0 mm 1 mps 714 mmHg 56%
    23:00 +15°C° 0 mm 1 mps 715 mmHg 57%

    Mañana, 20 Septiembre, Jueves

    Tiempo Temperatura Precipitaciones Viento Presión Humedad
    00:00 +15°C° 0 mm 1 mps 715 mmHg 58%
    01:00 +15°C° 0 mm 1 mps 714 mmHg 59%
    02:00 +14°C° 0 mm 1 mps 714 mmHg 60%
    03:00 +14°C° 0 mm 1 mps 714 mmHg 61%
    04:00 +14°C° 0 mm 1 mps 714 mmHg 62%
    05:00 +13°C° 0 mm 1 mps 714 mmHg 63%
    06:00 +15°C° 0 mm 1 mps 714 mmHg 59%
    07:00 +16°C° 0 mm 1 mps 715 mmHg 55%
    08:00 +19°C° 0 mm 1 mps 715 mmHg 51%
    09:00 +21°C° 0 mm 1 mps 715 mmHg 44%
    10:00 +23°C° 0 mm 2 mps 715 mmHg 38%
    11:00 +25°C° 0 mm 2 mps 715 mmHg 31%
    12:00 +26°C° 0 mm 2 mps 715 mmHg 29%
    13:00 +27°C° 0 mm 2 mps 715 mmHg 26%
    14:00 +28°C° 0 mm 2 mps 714 mmHg 24%
    15:00 +27°C° 0 mm 2 mps 714 mmHg 25%
    16:00 +27°C° 0 mm 2 mps 714 mmHg 26%
    17:00 +26°C° 0 mm 3 mps 714 mmHg 28%
    18:00 +23°C° 0 mm 2 mps 713 mmHg 33%
    19:00 +20°C° 0 mm 2 mps 713 mmHg 38%
    20:00 +18°C° 0 mm 1 mps 713 mmHg 43%
    21:00 +16°C° 0 mm 1 mps 713 mmHg 43%
    22:00 +16°C° 0 mm 1 mps 713 mmHg 43%
    23:00 +15°C° 0 mm 1 mps 714 mmHg 44%

    Pasado mañana, 21 Septiembre, Viernes

    Tiempo Temperatura Precipitaciones Viento Presión Humedad
    00:00 +15°C° 0 mm 1 mps 714 mmHg 44%
    01:00 +15°C° 0 mm 1 mps 713 mmHg 44%
    02:00 +14°C° 0 mm 1 mps 713 mmHg 44%
    03:00 +14°C° 0 mm 1 mps 713 mmHg 45%
    04:00 +14°C° 0 mm 1 mps 713 mmHg 45%
    05:00 +13°C° 0 mm 1 mps 713 mmHg 46%
    06:00 +15°C° 0 mm 1 mps 713 mmHg 44%
    07:00 +16°C° 0 mm 1 mps 714 mmHg 42%
    08:00 +19°C° 0 mm 1 mps 714 mmHg 40%
    09:00 +21°C° 0 mm 1 mps 714 mmHg 37%
    10:00 +24°C° 0 mm 1 mps 715 mmHg 33%
    11:00 +26°C° 0 mm 1 mps 715 mmHg 30%
    12:00 +27°C° 0 mm 1 mps 715 mmHg 28%
    13:00 +28°C° 0 mm 1 mps 714 mmHg 27%
    14:00 +29°C° 0 mm 2 mps 714 mmHg 25%
    15:00 +28°C° 0 mm 2 mps 714 mmHg 26%
    16:00 +28°C° 0 mm 2 mps 713 mmHg 28%
    17:00 +27°C° 0 mm 1 mps 713 mmHg 30%
    18:00 +24°C° 0 mm 1 mps 713 mmHg 36%
    19:00 +22°C° 0 mm 1 mps 713 mmHg 42%
    20:00 +19°C° 0 mm 1 mps 713 mmHg 48%
    21:00 +18°C° 0 mm 1 mps 713 mmHg 49%
    22:00 +18°C° 0 mm 1 mps 713 mmHg 51%
    23:00 +16°C° 0 mm 1 mps 713 mmHg 52%

    22 Septiembre, Sábado

    Tiempo Temperatura Precipitaciones Viento Presión Humedad
    00:00 +16°C° 0 mm 1 mps 713 mmHg 53%
    01:00 +16°C° 0 mm 1 mps 713 mmHg 53%
    02:00 +15°C° 0 mm 1 mps 713 mmHg 54%
    03:00 +15°C° 0 mm 1 mps 713 mmHg 54%
    04:00 +15°C° 0 mm 1 mps 713 mmHg 55%
    05:00 +15°C° 0 mm 1 mps 713 mmHg 55%
    06:00 +16°C° 0 mm 1 mps 713 mmHg 52%
    07:00 +19°C° 0 mm 1 mps 713 mmHg 49%
    08:00 +20°C° 0 mm 1 mps 713 mmHg 46%
    09:00 +21°C° 0 mm 0 mps 714 mmHg 40%
    10:00 +24°C° 0 mm 0 mps 714 mmHg 34%
    11:00 +27°C° 0 mm 0 mps 714 mmHg 28%
    12:00 +28°C° 0 mm 0 mps 714 mmHg 27%
    13:00 +28°C° 0 mm 0 mps 713 mmHg 25%
    14:00 +31°C° 0 mm 1 mps 713 mmHg 24%
    15:00 +30°C° 0 mm 1 mps 713 mmHg 26%
    16:00 +29°C° 0 mm 1 mps 712 mmHg 28%
    17:00 +29°C° 0 mm 1 mps 712 mmHg 29%
    18:00 +26°C° 0 mm 1 mps 712 mmHg 34%
    19:00 +23°C° 0 mm 1 mps 712 mmHg 39%
    20:00 +21°C° 0 mm 1 mps 712 mmHg 43%
    21:00 +20°C° 0 mm 1 mps 712 mmHg 45%
    22:00 +20°C° 0 mm 1 mps 712 mmHg 46%
    23:00 +19°C° 0 mm 1 mps 712 mmHg 47%

    23 Septiembre, Domingo

    Tiempo Temperatura Precipitaciones Viento Presión Humedad
    00:00 +19°C° 0 mm 1 mps 712 mmHg 48%
    01:00 +19°C° 0 mm 1 mps 712 mmHg 48%
    02:00 +18°C° 0 mm 1 mps 712 mmHg 49%
    03:00 +18°C° 0 mm 1 mps 713 mmHg 51%
    04:00 +18°C° 0 mm 1 mps 713 mmHg 53%
    05:00 +18°C° 0 mm 1 mps 713 mmHg 55%
    06:00 +17°C° 0 mm 2 mps 714 mmHg 57%
    07:00 +17°C° 0 mm 2 mps 714 mmHg 59%
    08:00 +18°C° 0 mm 2 mps 714 mmHg 62%
    09:00 +20°C° 0 mm 2 mps 715 mmHg 57%
    10:00 +23°C° 0 mm 2 mps 715 mmHg 52%
    11:00 +24°C° 0 mm 3 mps 715 mmHg 48%
    12:00 +25°C° 0 mm 3 mps 715 mmHg 45%
    13:00 +26°C° 0 mm 2 mps 714 mmHg 42%
    14:00 +27°C° 0 mm 2 mps 714 mmHg 40%
    15:00 +27°C° 0 mm 2 mps 714 mmHg 41%
    16:00 +26°C° 0 mm 2 mps 714 mmHg 43%
    17:00 +26°C° 0 mm 2 mps 713 mmHg 44%
    18:00 +23°C° 0 mm 2 mps 713 mmHg 51%
    19:00 +21°C° 0 mm 1 mps 713 mmHg 59%
    20:00 +19°C° 0 mm 1 mps 713 mmHg 66%
    21:00 +18°C° 0 mm 1 mps 713 mmHg 67%
    22:00 +18°C° 0 mm 1 mps 713 mmHg 68%
    23:00 +16°C° 0 mm 1 mps 713 mmHg 70%

    24 Septiembre, Lunes

    Tiempo Temperatura Precipitaciones Viento Presión Humedad
    00:00 +16°C° 0 mm 1 mps 713 mmHg 71%
    01:00 +16°C° 0 mm 1 mps 713 mmHg 72%
    02:00 +16°C° 0 mm 1 mps 712 mmHg 73%
    03:00 +15°C° 0 mm 1 mps 712 mmHg 75%
    04:00 +15°C° 0 mm 1 mps 712 mmHg 77%
    05:00 +15°C° 0 mm 1 mps 712 mmHg 78%
    06:00 +16°C° 0 mm 1 mps 712 mmHg 74%
    07:00 +18°C° 0 mm 1 mps 712 mmHg 69%
    08:00 +20°C° 0 mm 1 mps 712 mmHg 65%
    09:00 +21°C° 0 mm 2 mps 712 mmHg 57%
    10:00 +25°C° 0 mm 2 mps 712 mmHg 48%
    11:00 +27°C° 0 mm 2 mps 712 mmHg 40%
    12:00 +28°C° 0 mm 2 mps 711 mmHg 37%
    13:00 +29°C° 0 mm 2 mps 711 mmHg 35%
    14:00 +30°C° 0 mm 3 mps 710 mmHg 32%
    15:00 +30°C° 0 mm 3 mps 709 mmHg 34%
    16:00 +29°C° 0 mm 3 mps 709 mmHg 36%
    17:00 +28°C° 0 mm 3 mps 708 mmHg 38%
    18:00 +26°C° 0 mm 2 mps 708 mmHg 46%
    19:00 +23°C° 0 mm 2 mps 707 mmHg 53%
    20:00 +20°C° 0 mm 2 mps 707 mmHg 61%
    21:00 +19°C° 0 mm 2 mps 707 mmHg 63%
    22:00 +19°C° 0 mm 2 mps 707 mmHg 66%
    23:00 +18°C° 0 mm 2 mps 707 mmHg 68%
    Mostrar más